Location: Newark
(40.9833°N, 0.0333°W)
Time: 02:29:20
(UTC+00:00)

Altair - Pass Details

Date: 30 October 2020
Orbit: 1502 x 1682 km, 47.2° (Epoch: 02 December)

Event Time Altitude Azimuth Distance (km) Brightness Sun altitude
Rises 05:00:27 0° 242° (WSW) 4,634 - -17.2°
Reaches altitude 10° 05:03:26 10° 242° (WSW) 3,664 - -16.6°
Exits shadow 05:04:33 15° 242° (WSW) 3,311 8.8 -16.4°
Maximum altitude 05:12:42 88° 332° (NNW) 1,545 7.5 -14.9°
Drops below altitude 10° 05:22:20 10° 64° (ENE) 3,791 10.5 -13.1°
Sets 05:25:29 0° 65° (ENE) 4,803 11.1 -12.5°
